GSAT0207 (GALILEO 15)

Last updated on Wed Jul 02 2025 00:02:33 GMT+0000 (Coordinated Universal Time)

1 41859U 16069A 25181.38174970 -.00000012 00000+0 00000+0 0 9997 2 41859 55.2837 110.8319 0004846 321.4057 38.5430 1.70473746 53400
UTC large
Height (km)
Speed (km/s)
/
Latitude / Longitude
Inclination (degrees)
Orbital Period (minutes)
Azimuth
Elevation
Range (km)
Doppler Factor

Next 0 passes for location: London (51.5072 / 0.1276)

Sorry there are no passes over London.